Estación de Panquehue

Ultimos registro cada 15 minutos 30
Estación Fecha / Hora Temperatura Humedad Lluvia Velocidad Dirección Radiación Presion
30 Panquehue 05-05-2026 07:15 10,2 62 0 0 69 0 1012,6
29 Panquehue 05-05-2026 07:00 10,1 62 0 0,9 46 0 1012,7
28 Panquehue 05-05-2026 06:45 9,8 63 0 0 55 0 1012,6
27 Panquehue 05-05-2026 06:30 9,8 63 0 1,3 24 0 1012,4
26 Panquehue 05-05-2026 06:15 10,1 62 0 0,4 50 0 1012,1
25 Panquehue 05-05-2026 06:00 9,2 64 0 2,2 37 0 1011,9
24 Panquehue 05-05-2026 05:45 9,2 66 0 1,3 50 0 1011,9
23 Panquehue 05-05-2026 05:30 9,1 67 0 0 27 0 1011,9
22 Panquehue 05-05-2026 05:15 9,2 64 0 1,3 79 0 1011,5
21 Panquehue 05-05-2026 05:00 8,6 70 0 0 68 0 1011,4
20 Panquehue 05-05-2026 04:45 8,7 66 0 0 78 0 1011,4
19 Panquehue 05-05-2026 04:30 9,5 61 0 0 79 0 1011,1
18 Panquehue 05-05-2026 04:15 9,8 63 0 0,4 40 0 1011,1
17 Panquehue 05-05-2026 04:00 9,9 63 0 0,4 40 0 1011,1
16 Panquehue 05-05-2026 03:45 10,1 64 0 0 59 0 1011,2
15 Panquehue 05-05-2026 03:30 10,9 59 0 0,9 112 0 1011,5
14 Panquehue 05-05-2026 03:15 11,2 59 0 0,9 71 0 1011,3
13 Panquehue 05-05-2026 03:00 11,6 56 0 0,9 51 0 1011,4
12 Panquehue 05-05-2026 02:45 11,8 57 0 0,9 23 0 1012
11 Panquehue 05-05-2026 02:30 12,3 55 0 0 95 0 1012,3
10 Panquehue 05-05-2026 02:15 11,8 57 0 0,9 73 0 1012,4
9 Panquehue 05-05-2026 02:00 11,6 57 0 0,4 90 0 1012,6
8 Panquehue 05-05-2026 01:45 12 58 0 0,9 40 0 1012,7
7 Panquehue 05-05-2026 01:30 12,3 58 0 0,4 44 0 1012,9
6 Panquehue 05-05-2026 01:15 12,4 57 0 0,9 47 0 1013
5 Panquehue 05-05-2026 01:00 12,8 55 0 0 25 0 1012,9
4 Panquehue 05-05-2026 00:45 13,3 52 0 0,4 50 0 1012,7
3 Panquehue 05-05-2026 00:30 13,6 53 0 0,4 87 0 1012,7
2 Panquehue 05-05-2026 00:15 13,6 52 0 0,9 73 0 1012,9
1 Panquehue 05-05-2026 00:00 13,4 52 0 1,3 46 0 1013,1